[[[{"header":{"parameterUnit":"kt","parameterCategory":2,"dx":1,"dy":1,"la1":30.253999710083008,"la2":30.299108505249023,"lo1":-89.0895004272461,"lo2":-89.04439544677734,"nx":28,"ny":28,"refTime":"2022-09-23T21:00:00:Z","depth":0,"parameterNumber":1,"parameterNumberName":"U-component_of_WINDS"},"data":[-0.1726,-0.1742,-0.1687,-0.168,-0.1629,-0.1614,-0.1591,-0.1556,-0.1513,-0.1489,-0.1465,-0.1409,-0.1344,-0.1301,-0.1272,-0.1247,-0.124,-0.1288,-0.1251,-0.1089,-0.1063,-0.1038,-0.1031,-0.1286,-0.1287,-0.1428,-0.143,-0.1431,-0.1617,-0.1568,-0.1547,-0.1489,-0.1471,-0.1392,-0.1339,-0.133,-0.1318,-0.1264,-0.1237,-0.121,-0.1181,-0.1097,-0.1059,-0.1065,-0.1026,-0.106,-0.106,-0.1051,-0.0875,-0.0868,-0.1093,-0.1093,-0.1092,-0.1092,-0.1092,-0.1092,-0.1405,-0.1416,-0.1348,-0.1324,-0.1279,-0.124,-0.1241,-0.1172,-0.115,-0.1104,-0.1039,-0.1025,-0.0959,-0.0884,-0.0844,-0.0831,-0.0783,-0.0802,-0.0807,-0.0814,-0.0831,-0.0641,-0.0821,-0.082,-0.0819,-0.0819,-0.0818,0,-0.1232,-0.1185,-0.1159,-0.1119,-0.1097,-0.106,-0.1015,-0.1013,-0.089,-0.0877,-0.0853,-0.0829,-0.0782,-0.0752,-0.0703,-0.0656,-0.0572,-0.0555,-0.0568,-0.0602,-0.064,-0.0624,-0.0343,-0.0551,-0.0548,-0.0546,-0.0545,-0.0544,-0.1016,-0.1034,-0.0934,-0.0924,-0.0885,-0.087,-0.0849,-0.0738,-0.0721,-0.0649,-0.0664,-0.0631,-0.06,-0.057,-0.0486,-0.045,-0.0409,-0.0496,-0.0403,-0.0435,-0.0414,-0.0416,-0.0418,-0.0517,-0.052,-0.0523,-0.0525,0,-0.0901,-0.0806,-0.0815,-0.0712,-0.0687,-0.0712,-0.0623,-0.0628,-0.0559,-0.0556,-0.0549,-0.044,-0.0417,-0.0318,-0.0271,-0.022,-0.0262,-0.022,-0.0285,-0.0272,-0.0343,-0.0339,-0.0579,-0.0606,-0.0337,-0.034,-0.0342,0,-0.068,-0.0707,-0.0565,-0.0575,-0.0602,-0.0488,-0.0518,-0.0461,-0.04,-0.0397,-0.0284,-0.0284,-0.0156,-0.0141,-0.0066,-0.0081,-0.0071,-0.0034,-0.0014,-0.0046,-0.0051,-0.0036,-0.0025,0.0036,0.0037,0.0038,0.0039,0,-0.0512,-0.0464,-0.048,-0.0454,-0.0345,-0.0355,-0.031,-0.024,-0.022,-0.0177,-0.0163,-0.0121,-0.0099,-0.0069,0.0027,0.0086,0.0012,0.0113,0.005,0.0047,0.0027,0.0026,-0.021,0.0041,0.0041,0.0041,0.0042,0,-0.0319,-0.0278,-0.0313,-0.0221,-0.0213,-0.0222,-0.0173,-0.0157,-0.0092,-0.0045,-0.001,0.0078,0.0075,0.0167,0.0165,0.0214,0.0229,0.0266,0.0263,0.0267,0.0366,0.0216,-0.0016,-0.0038,0.0272,0.0274,0.0276,0,-0.0154,-0.0162,-0.0064,-0.0099,-0.009,0.0036,0.0028,0.0084,0.0147,0.0164,0.0235,0.0255,0.0345,0.0365,0.0351,0.0424,0.0361,0.0436,0.0458,0.0457,0.0432,0.0221,0.016,0.0024,0.0302,0.0299,0.0297,0,-0.0013,0.0121,0.0108,0.0142,0.0235,0.0245,0.0236,0.0282,0.0287,0.034,0.0335,0.0368,0.0436,0.0469,0.0546,0.0526,0.0407,0.0603,0.0606,0.0561,0.0325,0.0266,0.0243,0.0463,0.046,0.0457,0.0318,0,0.025,0.026,0.023,0.0304,0.0328,0.0314,0.0421,0.0432,0.0503,0.057,0.0566,0.0641,0.0688,0.0691,0.0761,0.0685,0.0713,0.0787,0.0883,0.0744,0.07,0.0683,0.0939,0.0942,0.0945,0.0947,0,0,0.0382,0.04,0.0509,0.0506,0.0533,0.0665,0.064,0.0682,0.0764,0.0779,0.0834,0.089,0.0949,0.0933,0.0899,0.0919,0.0915,0.096,0.081,0.0794,0.078,0.0731,0.0712,0.0953,0.0954,0.0955,0.0956,0,0.0501,0.0558,0.0532,0.0581,0.0656,0.073,0.0723,0.0822,0.0865,0.0864,0.0973,0.0985,0.1029,0.1075,0.1104,0.0965,0.1047,0.0972,0.0859,0.0836,0.0816,0.0799,0.0747,0.0727,0.0963,0.0962,0.0962,0,0.0656,0.0729,0.0729,0.0798,0.085,0.0858,0.0985,0.099,0.0997,0.1144,0.1141,0.1197,0.127,0.1243,0.1236,0.1285,0.116,0.1221,0.1205,0.1206,0.1189,0.1165,0.1144,0.1423,0.1424,0.1425,0,0,0.0743,0.0755,0.0869,0.0832,0.0857,0.0966,0.0983,0.1056,0.1118,0.1143,0.1217,0.1274,0.1301,0.1316,0.1348,0.1303,0.1327,0.1273,0.1251,0.1233,0.1224,0.1202,0.1178,0.1429,0.1429,0.1429,0,0,0.0786,0.0916,0.0977,0.0948,0.1003,0.1114,0.1087,0.1165,0.1204,0.1217,0.1342,0.1363,0.1341,0.1393,0.1438,0.1383,0.1476,0.1468,0.135,0.1324,0.1303,0.129,0.1578,0,0,0,0,0,0.0962,0.09,0.0954,0.0965,0.1055,0.1084,0.1096,0.1197,0.126,0.1236,0.1311,0.1399,0.1442,0.1485,0.1495,0.1443,0.1485,0.1475,0.1466,0.1304,0.1276,0.1252,0,0,0,0,0,0,0.0967,0.0981,0.0956,0.1062,0.1084,0.1087,0.1215,0.1241,0.1265,0.1282,0.1381,0.1402,0.1489,0.1487,0.1494,0.1443,0.1576,0.1481,0.1473,0.1465,0.1294,0.1271,0.1251,0,0,0,0,0,0.0972,0.0983,0.1101,0.1064,0.1082,0.1202,0.1219,0.1241,0.1262,0.1378,0.1401,0.1336,0.1485,0.1498,0.1492,0.1437,0.1572,0.1574,0.1476,0.1469,0.1463,0.1283,0,0,0,0,0,0,0.0976,0.1004,0.1107,0.1116,0.1095,0.1204,0.1225,0.1241,0.1359,0.1381,0.1338,0.135,0.1481,0.1492,0.1502,0.1429,0.1569,0.1571,0.1572,0.1471,0.1465,0.1461,0,0,0,0,0,0,0.0999,0.1011,0.1112,0.1146,0.116,0.1205,0.1223,0.1234,0.1358,0.1313,0.1327,0.1342,0.1468,0.1488,0.1496,0.1508,0.1566,0.1568,0.157,0.1571,0.1466,0.1462,0,0,0,0,0,0,0.1006,0.1017,0.1144,0.1155,0.1168,0.1281,0.1217,0.1303,0.1386,0.1306,0.1396,0.1401,0.146,0.1471,0.1491,0.1499,0.1505,0.1566,0.1568,0.1569,0.1569,0,0,0,0,0,0,0,0.1012,0.0917,0.1051,0.1162,0.1174,0.1203,0.1206,0.1209,0.1387,0.1391,0.1395,0.1399,0.1553,0.1556,0.1558,0.1491,0,0,0.1566,0.1567,0,0,0,0,0,0,0,0,0.0915,0.0917,0.1051,0.1053,0.1055,0.1204,0.1206,0.1208,0.1387,0.1391,0.1394,0.1397,0.1554,0.1556,0.1558,0,0,0,0,0,0,0,0,0,0,0,0,0,0,0,0.1051,0.1053,0,0.1204,0.1206,0.1208,0.1388,0.1391,0.1393,0.1396,0.1555,0.1556,0.1558,0,0,0,0,0,0,0,0,0,0,0,0,0,0,0,0,0,0,0,0,0,0,0,0,0,0,0,0,0,0,0,0,0,0,0,0,0,0,0,0,0,0,0,0,0,0,0,0,0,0,0,0,0,0,0,0,0,0,0,0,0,0,0,0,0,0,0,0,0]}],[{"header":{"parameterUnit":"kt","parameterCategory":2,"dx":1,"dy":1,"la1":30.253999710083008,"la2":30.299108505249023,"lo1":-89.0895004272461,"lo2":-89.04439544677734,"nx":28,"ny":28,"refTime":"2022-09-23T21:00:00:Z","depth":0,"parameterNumber":2,"parameterNumberName":"V-component_of_WINDS"},"data":[3.3345,3.3377,3.3389,3.343,3.3448,3.3477,3.3491,3.3509,3.3527,3.3561,3.3582,3.3596,3.3617,3.3643,3.3664,3.367,3.3677,3.3679,3.3684,3.367,3.3668,3.3667,3.3661,3.3681,3.3681,3.3698,3.3698,3.3698,3.3327,3.3345,3.3372,3.3405,3.3427,3.3432,3.3458,3.3475,3.3501,3.3524,3.3546,3.3576,3.3601,3.3623,3.3648,3.366,3.3663,3.3665,3.3664,3.3667,3.3652,3.3645,3.3662,3.3662,3.3662,3.3662,3.3662,3.3662,3.3297,3.3317,3.3345,3.3374,3.3395,3.3416,3.3436,3.3455,3.348,3.3511,3.352,3.3549,3.3572,3.361,3.3625,3.3645,3.3645,3.3651,3.3652,3.3653,3.3651,3.3621,3.365,3.365,3.365,3.365,3.365,0,3.3279,3.3288,3.3316,3.3346,3.3368,3.3393,3.3418,3.3431,3.3454,3.3474,3.3503,3.3521,3.3556,3.3583,3.361,3.3625,3.3631,3.3634,3.3638,3.3633,3.3624,3.3627,3.36,3.3633,3.3633,3.3633,3.3633,3.3633,3.3247,3.3271,3.3308,3.3325,3.3343,3.3371,3.339,3.341,3.3429,3.3461,3.3476,3.3505,3.3529,3.3571,3.3591,3.3617,3.362,3.3631,3.3624,3.3618,3.3618,3.3616,3.3617,3.3632,3.3632,3.3632,3.3632,0,3.3227,3.3251,3.3291,3.3327,3.3336,3.3358,3.3387,3.3407,3.3424,3.3454,3.3462,3.3487,3.3515,3.3534,3.357,3.3578,3.3608,3.3612,3.3599,3.36,3.361,3.3608,3.3645,3.365,3.3631,3.3631,3.3631,0,3.3209,3.3239,3.3271,3.3294,3.3326,3.3348,3.3378,3.3396,3.3421,3.3444,3.3457,3.3478,3.3501,3.3524,3.3538,3.3566,3.3573,3.3581,3.3584,3.3579,3.3578,3.3588,3.3587,3.3593,3.3593,3.3593,3.3593,0,3.3174,3.3229,3.3266,3.3282,3.3325,3.334,3.3358,3.3387,3.3406,3.3433,3.3445,3.3475,3.3491,3.3512,3.3529,3.3524,3.3565,3.3561,3.3573,3.3572,3.3582,3.3581,3.3609,3.3592,3.3592,3.3592,3.3592,0,3.3163,3.3194,3.3246,3.3281,3.3294,3.3319,3.3351,3.3377,3.3406,3.3417,3.3439,3.3451,3.348,3.3473,3.3513,3.35,3.3513,3.3525,3.3526,3.3529,3.3521,3.3532,3.3559,3.3561,3.3531,3.3531,3.353,0,3.3115,3.3175,3.3196,3.3244,3.3275,3.3288,3.3315,3.3342,3.336,3.3386,3.3405,3.3435,3.3436,3.3448,3.3465,3.3485,3.3501,3.3483,3.3515,3.3516,3.3506,3.353,3.3529,3.3551,3.3524,3.3525,3.3525,0,3.3081,3.3137,3.3145,3.3164,3.3207,3.3234,3.3265,3.3302,3.3318,3.3349,3.3374,3.3419,3.342,3.3441,3.3455,3.3471,3.349,3.347,3.3471,3.3471,3.3524,3.3522,3.3526,3.3495,3.3496,3.3496,3.352,0,3.3052,3.3089,3.3112,3.3158,3.3182,3.3216,3.3243,3.3264,3.3275,3.3295,3.3334,3.3364,3.34,3.3412,3.3424,3.3457,3.3454,3.3456,3.3451,3.3468,3.3476,3.348,3.3436,3.3436,3.3436,3.3436,0,0,3.2999,3.3052,3.3077,3.3112,3.3134,3.315,3.3183,3.3207,3.3255,3.3268,3.3266,3.3334,3.3359,3.3404,3.3411,3.3427,3.3434,3.3429,3.346,3.3463,3.3465,3.3474,3.3478,3.3436,3.3436,3.3436,3.3436,0,3.2995,3.3025,3.306,3.3086,3.3126,3.3147,3.3155,3.3198,3.3212,3.3254,3.3265,3.3292,3.3349,3.3372,3.3391,3.3424,3.3431,3.3434,3.3441,3.346,3.3462,3.3465,3.3473,3.3477,3.3437,3.3437,3.3437,0,3.2964,3.2997,3.3019,3.3075,3.3102,3.3135,3.3137,3.3173,3.3197,3.3213,3.3254,3.3275,3.331,3.3351,3.3371,3.3369,3.3426,3.3415,3.3415,3.3418,3.3437,3.344,3.3442,3.3406,3.3406,3.3406,0,0,3.2957,3.2993,3.3036,3.3077,3.3092,3.3125,3.3146,3.3161,3.3195,3.3208,3.3236,3.3266,3.3298,3.3319,3.3352,3.3394,3.3402,3.341,3.3411,3.3412,3.3415,3.3435,3.3438,3.3405,3.3405,3.3405,0,0,3.2953,3.3006,3.3013,3.3065,3.3096,3.3141,3.3164,3.3173,3.3206,3.3205,3.3231,3.324,3.328,3.33,3.3286,3.335,3.3345,3.3349,3.3336,3.3338,3.3339,3.3333,3.3292,0,0,0,0,0,3.2964,3.2999,3.3005,3.3018,3.3091,3.3138,3.3147,3.3171,3.3166,3.3182,3.3206,3.3214,3.3297,3.3285,3.3296,3.3312,3.3395,3.3396,3.3398,3.3391,3.3393,3.3395,0,0,0,0,0,0,3.297,3.2986,3.3004,3.3051,3.3067,3.3137,3.3134,3.3141,3.3164,3.3165,3.3209,3.3215,3.3235,3.3281,3.3291,3.3305,3.3289,3.3395,3.3397,3.3398,3.3392,3.3393,3.3395,0,0,0,0,0,3.2974,3.2987,3.3099,3.305,3.3065,3.3104,3.3133,3.3139,3.3157,3.3196,3.3203,3.3173,3.3235,3.3244,3.3287,3.33,3.3282,3.3286,3.3396,3.3398,3.3399,3.3392,0,0,0,0,0,0,3.2977,3.2992,3.3102,3.3107,3.304,3.31,3.3111,3.3137,3.3187,3.3194,3.3161,3.3161,3.3235,3.3243,3.325,3.3297,3.3277,3.328,3.3283,3.3397,3.3398,3.3399,0,0,0,0,0,0,3.2985,3.2996,3.3105,3.3091,3.3095,3.3097,3.3106,3.3146,3.3187,3.3149,3.3151,3.3161,3.3223,3.3241,3.3247,3.3309,3.3272,3.3276,3.3278,3.328,3.3398,3.3399,0,0,0,0,0,0,3.299,3.3,3.309,3.3093,3.3096,3.3155,3.3132,3.3205,3.3177,3.3146,3.3175,3.3174,3.3222,3.3228,3.3245,3.3304,3.3308,3.3273,3.3275,3.3277,3.3278,0,0,0,0,0,0,0,3.2994,3.2926,3.3072,3.3094,3.3097,3.3155,3.3156,3.3157,3.3177,3.3176,3.3175,3.3175,3.3253,3.3256,3.326,3.33,0,0,3.3272,3.3274,0,0,0,0,0,0,0,0,3.2922,3.2925,3.3072,3.3073,3.3074,3.3155,3.3156,3.3157,3.3177,3.3176,3.3176,3.3175,3.3254,3.3257,3.326,0,0,0,0,0,0,0,0,0,0,0,0,0,0,0,3.3072,3.3073,0,3.3155,3.3156,3.3157,3.3177,3.3176,3.3176,3.3175,3.3255,3.3257,3.326,0,0,0,0,0,0,0,0,0,0,0,0,0,0,0,0,0,0,0,0,0,0,0,0,0,0,0,0,0,0,0,0,0,0,0,0,0,0,0,0,0,0,0,0,0,0,0,0,0,0,0,0,0,0,0,0,0,0,0,0,0,0,0,0,0,0,0,0,0]}]]]